Location: Luz Observatory
(34.5000°N, 117.2833°W)
Time: 04:33:09
(UTC-08:00)

Daily predictions for brighter satellites

Satellite Brightness Start Highest point End
(mag) Time Altitude Azimuth Time Altitude Azimuth Time Altitude Azimuth
Cosmos 1943 Rocket 4.3 03:09:50 21° ENE 03:09:50 21° ENE 03:12:10 10° NE
ATLAS CENTAUR R/B 4.1 03:15:18 46° NE 03:16:01 48° NE 03:30:01 10° SE
CZ-4C R/B 4.4 03:18:41 18° ESE 03:18:50 18° ESE 03:22:21 10° ENE
Lacrosse 5 3.4 03:49:14 31° NE 03:49:14 31° NE 03:51:51 10° NE
ADEOS II 3.7 03:45:59 10° NNE 03:48:14 26° NNE 03:48:14 26° NNE
USA 234 3.2 03:51:27 10° NE 03:57:37 70° NNW 03:57:37 70° NNW
Cosmos 2369 Rocket 3.9 04:07:22 21° N 04:07:22 21° N 04:09:24 10° N
Cosmos 407 Rocket 4.0 04:08:28 14° N 04:13:06 60° ENE 04:18:19 10° SSE
Cosmos 1656 Rocket 4.3 04:10:17 23° S 04:13:41 54° ESE 04:19:12 10° NNE
CZ-4B R/B 4.5 04:15:32 10° NNE 04:19:04 56° ENE 04:19:04 56° ENE
Nadezhda 2 Rocket 4.3 04:18:43 10° N 04:24:50 89° ENE 04:30:59 10° S
OAO 1 Rocket 4.4 04:24:47 67° SSW 04:24:52 67° SSW 04:30:11 10° ESE
Cosmos 1833 4.3 04:24:40 10° NNW 04:30:15 71° ENE 04:35:50 10° SSE
GEOS 3 Rocket 3.4 04:25:21 10° SSE 04:30:24 71° WSW 04:31:06 62° WNW
Okean 1-7 3.5 04:29:50 10° S 04:34:03 59° E 04:38:14 10° NNE
Tiangong 1 3.1 04:39:12 21° NNE 04:39:12 21° NNE 04:40:32 10° NE
Cosmos 1190 Rocket 3.9 04:37:58 35° NW 04:40:05 63° WSW 04:45:17 10° S
Sich 1 Rocket 3.5 04:36:27 10° NNW 04:40:57 67° W 04:45:21 10° S
Cosmos 1908 Rocket 3.4 04:38:37 10° NNW 04:43:04 67° W 04:47:29 10° S
Cosmos 1417 Rocket 4.4 04:38:19 10° S 04:44:31 86° W 04:50:42 10° N
ATLAS 5 CENTAUR R/B 3.4 04:45:45 21° NNW 04:45:45 21° NNW 04:48:42 10° N
Meteor 2-10 Rocket 3.3 04:43:42 19° SSW 04:47:18 65° W 04:52:18 10° N
Chunghua 1 4.4 04:48:08 73° WNW 04:48:26 82° N 04:52:14 10° E
Cosmos 1782 Rocket 3.6 04:44:10 10° N 04:48:38 78° E 04:53:04 10° S
Okean-O 2.7 04:46:10 10° N 04:50:27 50° WNW 04:50:57 47° W
Cosmos 1943 Rocket 3.0 04:51:24 30° NW 04:51:24 30° NW 04:55:51 10° N
Cosmos 1782 3.8 04:50:35 10° SSE 04:54:22 47° E 04:58:11 10° NNE
SKYMED 2 4.2 04:52:04 10° SSE 04:56:18 56° ENE 05:00:34 10° N
Radarsat Rocket 4.4 04:49:14 10° NNE 04:56:25 79° ESE 05:02:42 10° SSW
Meteor 1-14 Rocket 4.1 04:59:05 10° NNW 05:04:52 74° W 05:10:30 10° S
CZ-4C R/B 2.3 05:03:56 26° WSW 05:06:39 50° NW 05:12:16 10° NNE
Cosmos 1954 Rocket 3.9 05:01:50 10° NNW 05:07:09 78° WSW 05:12:27 10° S
Cosmos 1420 Rocket 3.9 05:04:56 10° SSW 05:10:02 64° WNW 05:15:12 10° N
Cosmos 1606 3.4 05:06:36 10° S 05:10:22 56° E 05:14:11 10° NNE
NOAA 6 4.0 05:06:24 10° N 05:11:27 58° WNW 05:16:28 10° SSW
Okean 2 Rocket 2.9 05:07:14 10° N 05:11:37 78° W 05:16:01 10° S
Ariane Rocket 3.7 05:06:48 10° NNE 05:11:49 56° E 05:16:46 10° S
Thor Agena Rocket 4.0 05:17:49 10° SSW 05:22:40 38° W 05:27:30 10° NNW
Meteor 2-6 Rocket 4.2 05:19:04 10° S 05:24:27 82° E 05:29:52 10° N
Meteor 1-31 Rocket 4.5 05:24:01 10° NNW 05:25:51 16° WNW 05:25:51 16° WNW
Lacrosse 5 3.6 05:28:28 13° WNW 05:30:24 16° NNW 05:33:29 10° N
Cosmos 2151 Rocket 3.8 05:26:18 10° N 05:30:49 77° E 05:35:16 10° S
Delta 2 Rocket 3.9 05:27:00 16° WSW 05:30:56 83° SSE 05:36:26 10° E
S3M 4.3 05:26:20 10° SSW 05:32:22 45° W 05:38:23 10° N
CZ-4 R/B 3.3 05:29:01 10° NNE 05:32:51 35° E 05:36:36 10° SSE
Meteor 1-25 Rocket 4.4 05:28:58 10° NNW 05:34:40 57° W 05:40:22 10° S
Cosmos 1607 3.9 05:30:11 10° SSW 05:36:17 83° WNW 05:42:29 10° NNE
USA 238 DEB 4.3 05:31:44 10° SSW 05:38:37 64° ESE 05:45:33 10° NE
USA 238 4.3 05:31:49 10° SSW 05:38:43 63° ESE 05:45:38 10° NE
Cosmos 1553 Rocket 4.5 05:34:39 10° SW 05:40:16 36° WNW 05:46:00 10° NNW
Cosmos 1110 Rocket 4.3 05:38:02 10° S 05:43:09 72° ESE 05:48:19 10° NNE
CSL-04 Debris 4.3 05:38:09 10° NNE 05:43:35 85° ESE 05:48:58 10° SSW
COSMO-SKYMED 1 3.1 05:40:21 10° SSW 05:44:21 37° W 05:48:22 10° NNW
Cosmos 2219 3.2 05:41:59 10° NNW 05:47:34 60° WSW 05:53:05 10° S
Cosmos 1741 Rocket 4.0 05:44:36 10° NNW 05:49:48 69° WSW 05:55:01 10° S
Meteor 1-10 Rocket 4.4 05:47:00 10° SSW 05:52:19 47° WNW 05:57:44 10° N
Meteor 1-11 Rocket 4.2 05:47:39 10° N 05:53:37 71° E 05:59:26 10° SSE
Cosmos 2227 Rocket 3.5 05:48:59 10° N 05:54:24 44° ENE 05:59:46 10° SE
CSL-04 DEB 4.4 05:54:21 10° NNE 05:58:19 88° ESE 06:02:14 10° SSW
